| time (UTC) | temp C | wind direction | speed KPH | gust KPH | rain 1hr cm | rain 24hr cm | rain mn cm | humidity % | barometer mb |
| 20260906234314 | 33 | 135 | 0.0 | 4.8 | 0.00 | 0.00 | 0.00 | 18 | 1017.2 |
| 20260906233827 | 33 | 234 | 0.0 | 6.4 | 0.00 | 0.00 | 0.00 | 18 | 1017.2 |
| 20260906233324 | 33 | 232 | 1.6 | 9.7 | 0.00 | 0.00 | 0.00 | 18 | 1017.2 |
| 20260906232825 | 33 | 208 | 1.6 | 9.7 | 0.00 | 0.00 | 0.00 | 18 | 1017.4 |
| 20260906232324 | 33 | 240 | 0.0 | 9.7 | 0.00 | 0.00 | 0.00 | 19 | 1017.3 |
| 20260906231844 | 33 | 232 | 1.6 | 4.8 | 0.00 | 0.00 | 0.00 | 18 | 1017.4 |
| 20260906231335 | 33 | 227 | 0.0 | 6.4 | 0.00 | 0.00 | 0.00 | 19 | 1017.3 |
| 20260906230806 | 33 | 215 | 1.6 | 9.7 | 0.00 | 0.00 | 0.00 | 18 | 1017.3 |
| 20260906230322 | 34 | 192 | 0.0 | 9.7 | 0.00 | 0.00 | 0.00 | 18 | 1017.3 |
| 20260906225824 | 34 | 212 | 1.6 | 8.0 | 0.00 | 0.00 | 0.00 | 17 | 1017.2 |
| 20260906225306 | 33 | 213 | 0.0 | 8.0 | 0.00 | 0.00 | 0.00 | 17 | 1017.2 |
| 20260906224801 | 33 | 278 | 0.0 | 8.0 | 0.00 | 0.00 | 0.00 | 18 | 1017.2 |
| 20260906224301 | 33 | 269 | 1.6 | 16.1 | 0.00 | 0.00 | 0.00 | 18 | 1017.1 |
| 20260906223831 | 34 | 246 | 4.8 | 16.1 | 0.00 | 0.00 | 0.00 | 18 | 1017.3 |
| 20260906223346 | 34 | 214 | 4.8 | 11.3 | 0.00 | 0.00 | 0.00 | 17 | 1017.3 |
| 20260906222808 | 33 | 256 | 1.6 | 12.9 | 0.00 | 0.00 | 0.00 | 18 | 1017.4 |
| 20260906222322 | 33 | 221 | 4.8 | 12.9 | 0.00 | 0.00 | 0.00 | 18 | 1017.3 |
| 20260906221826 | 34 | 213 | 1.6 | 11.3 | 0.00 | 0.00 | 0.00 | 17 | 1017.4 |
| 20260906221315 | 34 | 238 | 3.2 | 11.3 | 0.00 | 0.00 | 0.00 | 17 | 1017.5 |
| 20260906220821 | 33 | 220 | 3.2 | 11.3 | 0.00 | 0.00 | 0.00 | 17 | 1017.6 |
| 20260906220316 | 33 | 242 | 1.6 | 11.3 | 0.00 | 0.00 | 0.00 | 17 | 1017.7 |
| 20260906215843 | 34 | 239 | 1.6 | 11.3 | 0.00 | 0.00 | 0.00 | 16 | 1017.8 |
| 20260906215345 | 34 | 209 | 1.6 | 11.3 | 0.00 | 0.00 | 0.00 | 17 | 1017.9 |
| 20260906214801 | 34 | 219 | 4.8 | 17.7 | 0.00 | 0.00 | 0.00 | 17 | 1018.0 |
| 20260906214321 | 34 | 227 | 8.0 | 17.7 | 0.00 | 0.00 | 0.00 | 17 | 1018.2 |
| 20260906213844 | 35 | 336 | 1.6 | 9.7 | 0.00 | 0.00 | 0.00 | 17 | 1018.3 |
| 20260906213316 | 34 | 302 | 1.6 | 9.7 | 0.00 | 0.00 | 0.00 | 17 | 1018.3 |
| 20260906212841 | 33 | 230 | 4.8 | 9.7 | 0.00 | 0.00 | 0.00 | 17 | 1018.5 |
| 20260906212306 | 33 | 316 | 0.0 | 8.0 | 0.00 | 0.00 | 0.00 | 17 | 1018.6 |
| 20260906211805 | 33 | 315 | 0.0 | 6.4 | 0.00 | 0.00 | 0.00 | 17 | 1018.7 |
| 20260906211344 | 33 | 225 | 0.0 | 8.0 | 0.00 | 0.00 | 0.00 | 17 | 1018.9 |
| 20260906210843 | 33 | 237 | 3.2 | 8.0 | 0.00 | 0.00 | 0.00 | 17 | 1018.9 |
| 20260906210346 | 33 | 252 | 1.6 | 8.0 | 0.00 | 0.00 | 0.00 | 17 | 1019.0 |
| 20260906205811 | 33 | 274 | 0.0 | 8.0 | 0.00 | 0.00 | 0.00 | 17 | 1018.7 |
| 20260906205316 | 33 | 283 | 1.6 | 9.7 | 0.00 | 0.00 | 0.00 | 18 | 1018.9 |
| 20260906204802 | 33 | 351 | 0.0 | 9.7 | 0.00 | 0.00 | 0.00 | 17 | 1018.9 |
| 20260906204307 | 33 | 307 | 1.6 | 12.9 | 0.00 | 0.00 | 0.00 | 17 | 1019.0 |
| 20260906203811 | 33 | 246 | 1.6 | 14.5 | 0.00 | 0.00 | 0.00 | 16 | 1019.0 |
| 20260906203341 | 33 | 279 | 4.8 | 14.5 | 0.00 | 0.00 | 0.00 | 17 | 1019.1 |
| 20260906202834 | 33 | 271 | 3.2 | 9.7 | 0.00 | 0.00 | 0.00 | 16 | 1019.1 |
| 20260906202333 | 33 | 264 | 0.0 | 6.4 | 0.00 | 0.00 | 0.00 | 16 | 1019.2 |
| 20260906201811 | 33 | 264 | 1.6 | 6.4 | 0.00 | 0.00 | 0.00 | 18 | 1019.2 |
| 20260906201346 | 33 | 306 | 1.6 | 8.0 | 0.00 | 0.00 | 0.00 | 18 | 1019.3 |
| 20260906200824 | 32 | 264 | 1.6 | 8.0 | 0.00 | 0.00 | 0.00 | 17 | 1019.4 |
| 20260906200305 | 32 | 223 | 1.6 | 8.0 | 0.00 | 0.00 | 0.00 | 17 | 1019.4 |
| 20260906195843 | 32 | 316 | 1.6 | 11.3 | 0.00 | 0.00 | 0.00 | 18 | 1019.4 |
| 20260906195322 | 32 | 259 | 4.8 | 11.3 | 0.00 | 0.00 | 0.00 | 18 | 1019.6 |
| 20260906194812 | 33 | 50 | 1.6 | 17.7 | 0.00 | 0.00 | 0.00 | 17 | 1019.5 |
| 20260906194315 | 33 | 215 | 4.8 | 17.7 | 0.00 | 0.00 | 0.00 | 16 | 1019.7 |
| 20260906193826 | 33 | 281 | 1.6 | 6.4 | 0.00 | 0.00 | 0.00 | 17 | 1019.6 |
| 20260906193332 | 33 | 221 | 0.0 | 8.0 | 0.00 | 0.00 | 0.00 | 16 | 1019.7 |
| 20260906192845 | 32 | 215 | 1.6 | 8.0 | 0.00 | 0.00 | 0.00 | 18 | 1019.8 |
| 20260906192321 | 32 | 244 | 0.0 | 4.8 | 0.00 | 0.00 | 0.00 | 19 | 1019.8 |
| 20260906191837 | 33 | 240 | 1.6 | 4.8 | 0.00 | 0.00 | 0.00 | 18 | 1019.9 |
| 20260906191307 | 33 | 174 | 0.0 | 8.0 | 0.00 | 0.00 | 0.00 | 17 | 1020.0 |
| 20260906190823 | 32 | 244 | 4.8 | 11.3 | 0.00 | 0.00 | 0.00 | 20 | 1020.3 |
| 20260906190311 | 32 | 251 | 4.8 | 11.3 | 0.00 | 0.00 | 0.00 | 21 | 1020.2 |
| 20260906185815 | 32 | 335 | 1.6 | 11.3 | 0.00 | 0.00 | 0.00 | 20 | 1020.3 |
| 20260906185344 | 32 | 304 | 1.6 | 9.7 | 0.00 | 0.00 | 0.00 | 21 | 1020.5 |
| 20260906184840 | 31 | 306 | 0.0 | 4.8 | 0.00 | 0.00 | 0.00 | 21 | 1020.3 |
| 20260906184301 | 32 | 322 | 0.0 | 8.0 | 0.00 | 0.00 | 0.00 | 21 | 1020.5 |
| 20260906183802 | 31 | 356 | 0.0 | 9.7 | 0.00 | 0.00 | 0.00 | 22 | 1020.6 |
| 20260906183312 | 31 | 288 | 1.6 | 9.7 | 0.00 | 0.00 | 0.00 | 24 | 1020.7 |
| 20260906182829 | 31 | 237 | 0.0 | 8.0 | 0.00 | 0.00 | 0.00 | 23 | 1020.8 |
| 20260906182337 | 31 | 241 | 4.8 | 8.0 | 0.00 | 0.00 | 0.00 | 24 | 1020.9 |
| 20260906181806 | 30 | 340 | 0.0 | 1.6 | 0.00 | 0.00 | 0.00 | 24 | 1021.0 |
| 20260906181336 | 30 | 314 | 0.0 | 1.6 | 0.00 | 0.00 | 0.00 | 26 | 1021.4 |
| 20260906180810 | 30 | 137 | 0.0 | 3.2 | 0.00 | 0.00 | 0.00 | 25 | 1021.2 |
| 20260906180329 | 30 | 224 | 0.0 | 6.4 | 0.00 | 0.00 | 0.00 | 25 | 1021.5 |
| 20260906175817 | 30 | 226 | 1.6 | 8.0 | 0.00 | 0.00 | 0.00 | 26 | 1021.6 |
| 20260906175316 | 30 | 223 | 1.6 | 8.0 | 0.00 | 0.00 | 0.00 | 25 | 1021.6 |
| 20260906174845 | 30 | 227 | 1.6 | 8.0 | 0.00 | 0.00 | 0.00 | 26 | 1021.6 |
| 20260906174303 | 29 | 239 | 0.0 | 1.6 | 0.00 | 0.00 | 0.00 | 26 | 1021.6 |
| 20260906173821 | 29 | 254 | 0.0 | 6.4 | 0.00 | 0.00 | 0.00 | 28 | 1021.8 |
| 20260906173304 | 28 | 248 | 0.0 | 6.4 | 0.00 | 0.00 | 0.00 | 27 | 1021.7 |
| 20260906172802 | 29 | 247 | 0.0 | 1.6 | 0.00 | 0.00 | 0.00 | 27 | 1021.8 |
| 20260906172315 | 29 | 223 | 0.0 | 6.4 | 0.00 | 0.00 | 0.00 | 26 | 1021.8 |
| 20260906171814 | 29 | 217 | 1.6 | 8.0 | 0.00 | 0.00 | 0.00 | 27 | 1021.8 |
| 20260906171305 | 29 | 217 | 1.6 | 8.0 | 0.00 | 0.00 | 0.00 | 28 | 1022.0 |
| 20260906170823 | 29 | 232 | 0.0 | 8.0 | 0.00 | 0.00 | 0.00 | 27 | 1022.0 |
| 20260906170305 | 29 | 284 | 0.0 | 8.0 | 0.00 | 0.00 | 0.00 | 28 | 1022.1 |
| 20260906165816 | 29 | 279 | 0.0 | 3.2 | 0.00 | 0.00 | 0.00 | 28 | 1022.0 |
| 20260906165317 | 29 | 189 | 0.0 | 9.7 | 0.00 | 0.00 | 0.00 | 28 | 1022.0 |
| 20260906164834 | 29 | 227 | 3.2 | 9.7 | 0.00 | 0.00 | 0.00 | 28 | 1022.2 |
| 20260906164319 | 28 | 242 | 0.0 | 0.0 | 0.00 | 0.00 | 0.00 | 31 | 1022.4 |
| 20260906163832 | 27 | 305 | 0.0 | 0.0 | 0.00 | 0.00 | 0.00 | 32 | 1022.2 |
| 20260906163303 | 27 | 309 | 0.0 | 0.0 | 0.00 | 0.00 | 0.00 | 31 | 1022.4 |
| 20260906162816 | 26 | 309 | 0.0 | 0.0 | 0.00 | 0.00 | 0.00 | 34 | 1022.0 |
| 20260906162344 | 25 | 309 | 0.0 | 0.0 | 0.00 | 0.00 | 0.00 | 35 | 1022.1 |
| 20260906161816 | 25 | 309 | 0.0 | 0.0 | 0.00 | 0.00 | 0.00 | 36 | 1022.0 |
| 20260906161306 | 25 | 309 | 0.0 | 0.0 | 0.00 | 0.00 | 0.00 | 36 | 1022.1 |
| 20260906160807 | 25 | 309 | 0.0 | 0.0 | 0.00 | 0.00 | 0.00 | 37 | 1022.1 |
| 20260906160333 | 24 | 309 | 0.0 | 0.0 | 0.00 | 0.00 | 0.00 | 38 | 1022.2 |
| 20260906155834 | 24 | 304 | 0.0 | 0.0 | 0.00 | 0.00 | 0.00 | 39 | 1022.2 |
| 20260906155332 | 24 | 304 | 0.0 | 3.2 | 0.00 | 0.00 | 0.00 | 39 | 1022.1 |
| 20260906154805 | 24 | 300 | 0.0 | 3.2 | 0.00 | 0.00 | 0.00 | 39 | 1022.1 |
| 20260906154344 | 24 | 272 | 0.0 | 4.8 | 0.00 | 0.00 | 0.00 | 39 | 1022.1 |
| 20260906153838 | 23 | 271 | 1.6 | 4.8 | 0.00 | 0.00 | 0.00 | 40 | 1022.1 |
| 20260906153332 | 23 | 272 | 0.0 | 0.0 | 0.00 | 0.00 | 0.00 | 39 | 1022.0 |
| 20260906152823 | 23 | 272 | 0.0 | 0.0 | 0.00 | 0.00 | 0.00 | 41 | 1022.0 |
| 20260906152328 | 23 | 272 | 0.0 | 0.0 | 0.00 | 0.00 | 0.00 | 40 | 1022.0 |
| 20260906151846 | 23 | 273 | 0.0 | 0.0 | 0.00 | 0.00 | 0.00 | 41 | 1022.1 |
| 20260906151346 | 23 | 273 | 0.0 | 1.6 | 0.00 | 0.00 | 0.00 | 41 | 1022.1 |
| 20260906150842 | 23 | 273 | 0.0 | 3.2 | 0.00 | 0.00 | 0.00 | 41 | 1022.0 |
| 20260906150341 | 23 | 269 | 0.0 | 4.8 | 0.00 | 0.00 | 0.00 | 40 | 1022.0 |
| 20260906145826 | 23 | 270 | 0.0 | 4.8 | 0.00 | 0.00 | 0.00 | 41 | 1022.1 |
| 20260906145337 | 22 | 293 | 0.0 | 8.0 | 0.00 | 0.00 | 0.00 | 40 | 1021.9 |
| 20260906144806 | 23 | 261 | 3.2 | 8.0 | 0.00 | 0.00 | 0.00 | 39 | 1021.8 |
| 20260906144328 | 23 | 269 | 3.2 | 6.4 | 0.00 | 0.00 | 0.00 | 39 | 1021.9 |
| 20260906143846 | 23 | 278 | 1.6 | 6.4 | 0.00 | 0.00 | 0.00 | 39 | 1021.7 |
| 20260906143343 | 23 | 284 | 0.0 | 0.0 | 0.00 | 0.00 | 0.00 | 38 | 1021.8 |
| 20260906142816 | 23 | 287 | 0.0 | 4.8 | 0.00 | 0.00 | 0.00 | 39 | 1021.8 |
| 20260906142323 | 22 | 288 | 0.0 | 4.8 | 0.00 | 0.00 | 0.00 | 41 | 1021.5 |
| 20260906141832 | 21 | 301 | 1.6 | 3.2 | 0.00 | 0.00 | 0.00 | 43 | 1021.8 |
| 20260906141322 | 21 | 348 | 0.0 | 0.0 | 0.00 | 0.00 | 0.00 | 45 | 1021.8 |
| 20260906140803 | 21 | 348 | 0.0 | 0.0 | 0.00 | 0.00 | 0.00 | 45 | 1021.7 |
| 20260906140322 | 21 | 348 | 0.0 | 0.0 | 0.00 | 0.00 | 0.00 | 44 | 1021.6 |
| 20260906135806 | 21 | 348 | 0.0 | 0.0 | 0.00 | 0.00 | 0.00 | 44 | 1021.6 |
| 20260906135346 | 21 | 348 | 0.0 | 0.0 | 0.00 | 0.00 | 0.00 | 43 | 1021.5 |
| 20260906134804 | 20 | 348 | 0.0 | 1.6 | 0.00 | 0.00 | 0.00 | 43 | 1021.5 |
| 20260906134331 | 20 | 348 | 0.0 | 1.6 | 0.00 | 0.00 | 0.00 | 43 | 1021.4 |
| 20260906133841 | 20 | 348 | 0.0 | 1.6 | 0.00 | 0.00 | 0.00 | 43 | 1021.4 |
| 20260906133339 | 20 | 348 | 0.0 | 0.0 | 0.00 | 0.00 | 0.00 | 44 | 1021.4 |
| 20260906132821 | 20 | 348 | 0.0 | 0.0 | 0.00 | 0.00 | 0.00 | 44 | 1021.3 |
| 20260906132337 | 20 | 348 | 0.0 | 0.0 | 0.00 | 0.00 | 0.00 | 42 | 1021.3 |
| 20260906131827 | 20 | 347 | 0.0 | 4.8 | 0.00 | 0.00 | 0.00 | 42 | 1021.3 |
| 20260906131339 | 20 | 347 | 0.0 | 4.8 | 0.00 | 0.00 | 0.00 | 42 | 1021.3 |
| 20260906130825 | 20 | 326 | 0.0 | 1.6 | 0.00 | 0.00 | 0.00 | 43 | 1021.3 |
| 20260906130303 | 20 | 20 | 0.0 | 0.0 | 0.00 | 0.00 | 0.00 | 44 | 1021.3 |
| 20260906125842 | 20 | 21 | 0.0 | 0.0 | 0.00 | 0.00 | 0.00 | 45 | 1021.2 |
| 20260906125346 | 19 | 21 | 0.0 | 0.0 | 0.00 | 0.00 | 0.00 | 45 | 1021.1 |
| 20260906124827 | 19 | 21 | 0.0 | 0.0 | 0.00 | 0.00 | 0.00 | 46 | 1020.9 |
| 20260906124319 | 19 | 21 | 0.0 | 0.0 | 0.00 | 0.00 | 0.00 | 47 | 1020.9 |
| 20260906123801 | 18 | 21 | 0.0 | 0.0 | 0.00 | 0.00 | 0.00 | 49 | 1020.9 |
| 20260906123301 | 19 | 21 | 0.0 | 0.0 | 0.00 | 0.00 | 0.00 | 49 | 1020.8 |
| 20260906122803 | 19 | 21 | 0.0 | 0.0 | 0.00 | 0.00 | 0.00 | 49 | 1020.8 |
| 20260906122321 | 19 | 21 | 0.0 | 0.0 | 0.00 | 0.00 | 0.00 | 48 | 1020.8 |
| 20260906121823 | 19 | 21 | 0.0 | 0.0 | 0.00 | 0.00 | 0.00 | 48 | 1020.8 |
| 20260906121304 | 19 | 21 | 0.0 | 0.0 | 0.00 | 0.00 | 0.00 | 48 | 1020.7 |
| 20260906120802 | 20 | 21 | 0.0 | 0.0 | 0.00 | 0.00 | 0.00 | 48 | 1020.7 |
| 20260906120344 | 20 | 21 | 0.0 | 0.0 | 0.00 | 0.00 | 0.00 | 48 | 1020.6 |
| 20260906115807 | 20 | 21 | 0.0 | 0.0 | 0.00 | 0.00 | 0.00 | 48 | 1020.6 |
| 20260906115333 | 20 | 21 | 0.0 | 0.0 | 0.00 | 0.00 | 0.00 | 48 | 1020.8 |
| 20260906114811 | 20 | 21 | 0.0 | 0.0 | 0.00 | 0.00 | 0.00 | 48 | 1020.8 |
| 20260906114325 | 20 | 21 | 0.0 | 0.0 | 0.00 | 0.00 | 0.00 | 49 | 1020.9 |
| 20260906113824 | 20 | 21 | 0.0 | 0.0 | 0.00 | 0.00 | 0.00 | 49 | 1020.8 |
| 20260906113309 | 20 | 21 | 0.0 | 0.0 | 0.00 | 0.00 | 0.00 | 49 | 1020.8 |
| 20260906112821 | 20 | 21 | 0.0 | 0.0 | 0.00 | 0.00 | 0.00 | 50 | 1021.0 |
| 20260906112322 | 20 | 21 | 0.0 | 0.0 | 0.00 | 0.00 | 0.00 | 50 | 1021.0 |
| 20260906111843 | 20 | 21 | 0.0 | 0.0 | 0.00 | 0.00 | 0.00 | 50 | 1021.0 |
| 20260906111321 | 21 | 21 | 0.0 | 0.0 | 0.00 | 0.00 | 0.00 | 48 | 1020.8 |
| 20260906110834 | 21 | 21 | 0.0 | 0.0 | 0.00 | 0.00 | 0.00 | 47 | 1020.7 |
| 20260906110316 | 21 | 21 | 0.0 | 0.0 | 0.00 | 0.00 | 0.00 | 48 | 1020.9 |
| 20260906105819 | 21 | 21 | 0.0 | 0.0 | 0.00 | 0.00 | 0.00 | 49 | 1021.0 |
| 20260906105325 | 21 | 21 | 0.0 | 0.0 | 0.00 | 0.00 | 0.00 | 48 | 1021.0 |
| 20260906104804 | 21 | 21 | 0.0 | 0.0 | 0.00 | 0.00 | 0.00 | 49 | 1021.0 |
| 20260906104308 | 21 | 21 | 0.0 | 0.0 | 0.00 | 0.00 | 0.00 | 49 | 1021.0 |
| 20260906103840 | 21 | 21 | 0.0 | 0.0 | 0.00 | 0.00 | 0.00 | 49 | 1021.0 |
| 20260906103307 | 21 | 21 | 0.0 | 0.0 | 0.00 | 0.00 | 0.00 | 49 | 1020.9 |
| 20260906102804 | 21 | 21 | 0.0 | 0.0 | 0.00 | 0.00 | 0.00 | 48 | 1020.9 |
| 20260906102306 | 21 | 21 | 0.0 | 0.0 | 0.00 | 0.00 | 0.00 | 48 | 1021.0 |
| 20260906101802 | 21 | 21 | 0.0 | 0.0 | 0.00 | 0.00 | 0.00 | 49 | 1021.0 |
| 20260906101329 | 22 | 21 | 0.0 | 0.0 | 0.00 | 0.00 | 0.00 | 46 | 1021.1 |
| 20260906100814 | 21 | 6 | 0.0 | 0.0 | 0.00 | 0.00 | 0.00 | 44 | 1021.0 |
| 20260906100345 | 21 | 355 | 0.0 | 0.0 | 0.00 | 0.00 | 0.00 | 45 | 1021.1 |
| 20260906095834 | 21 | 355 | 0.0 | 0.0 | 0.00 | 0.00 | 0.00 | 45 | 1021.0 |
| 20260906095341 | 21 | 355 | 0.0 | 0.0 | 0.00 | 0.00 | 0.00 | 45 | 1020.9 |
| 20260906094818 | 21 | 355 | 0.0 | 0.0 | 0.00 | 0.00 | 0.00 | 44 | 1020.8 |
| 20260906094343 | 21 | 355 | 0.0 | 0.0 | 0.00 | 0.00 | 0.00 | 45 | 1020.9 |
| 20260906093834 | 21 | 355 | 0.0 | 0.0 | 0.00 | 0.00 | 0.00 | 44 | 1020.7 |
| 20260906093320 | 21 | 355 | 0.0 | 0.0 | 0.00 | 0.00 | 0.00 | 43 | 1020.7 |
| 20260906092836 | 21 | 355 | 0.0 | 0.0 | 0.00 | 0.00 | 0.00 | 44 | 1020.7 |
| 20260906092325 | 21 | 355 | 0.0 | 0.0 | 0.00 | 0.00 | 0.00 | 44 | 1020.6 |
| 20260906091830 | 21 | 355 | 0.0 | 0.0 | 0.00 | 0.00 | 0.00 | 44 | 1020.5 |
| 20260906091302 | 21 | 355 | 0.0 | 0.0 | 0.00 | 0.00 | 0.00 | 45 | 1020.7 |
| 20260906090827 | 21 | 355 | 0.0 | 0.0 | 0.00 | 0.00 | 0.00 | 44 | 1020.7 |
| 20260906090333 | 21 | 355 | 0.0 | 0.0 | 0.00 | 0.00 | 0.00 | 45 | 1020.6 |
| 20260906085835 | 21 | 355 | 0.0 | 0.0 | 0.00 | 0.00 | 0.00 | 45 | 1020.2 |
| 20260906085331 | 21 | 355 | 0.0 | 0.0 | 0.00 | 0.00 | 0.00 | 45 | 1020.2 |
| 20260906084828 | 21 | 355 | 0.0 | 0.0 | 0.00 | 0.00 | 0.00 | 46 | 1020.4 |
| 20260906084344 | 21 | 355 | 0.0 | 0.0 | 0.00 | 0.00 | 0.00 | 46 | 1020.3 |
| 20260906083814 | 21 | 355 | 0.0 | 0.0 | 0.00 | 0.00 | 0.00 | 45 | 1020.4 |
| 20260906083314 | 21 | 355 | 0.0 | 0.0 | 0.00 | 0.00 | 0.00 | 45 | 1020.4 |
| 20260906082832 | 21 | 355 | 0.0 | 0.0 | 0.00 | 0.00 | 0.00 | 46 | 1020.5 |
| 20260906082340 | 21 | 355 | 0.0 | 0.0 | 0.00 | 0.00 | 0.00 | 47 | 1020.6 |
| 20260906081845 | 21 | 355 | 0.0 | 0.0 | 0.00 | 0.00 | 0.00 | 47 | 1020.7 |
| 20260906081311 | 21 | 355 | 0.0 | 0.0 | 0.00 | 0.00 | 0.00 | 47 | 1020.5 |
| 20260906080808 | 21 | 355 | 0.0 | 0.0 | 0.00 | 0.00 | 0.00 | 46 | 1020.6 |
| 20260906080336 | 21 | 355 | 0.0 | 0.0 | 0.00 | 0.00 | 0.00 | 46 | 1020.6 |
| 20260906075828 | 21 | 355 | 0.0 | 0.0 | 0.00 | 0.00 | 0.00 | 46 | 1020.7 |
| 20260906075336 | 21 | 355 | 0.0 | 0.0 | 0.00 | 0.00 | 0.00 | 46 | 1020.8 |
| 20260906074841 | 21 | 355 | 0.0 | 0.0 | 0.00 | 0.00 | 0.00 | 46 | 1020.8 |
| 20260906074326 | 21 | 355 | 0.0 | 0.0 | 0.00 | 0.00 | 0.00 | 46 | 1020.9 |
| 20260906073846 | 21 | 355 | 0.0 | 0.0 | 0.00 | 0.00 | 0.00 | 47 | 1020.9 |
| 20260906073322 | 20 | 355 | 0.0 | 0.0 | 0.00 | 0.00 | 0.00 | 47 | 1020.9 |
| 20260906072833 | 21 | 355 | 0.0 | 0.0 | 0.00 | 0.00 | 0.00 | 48 | 1021.1 |
| 20260906072341 | 21 | 355 | 0.0 | 0.0 | 0.00 | 0.00 | 0.00 | 48 | 1021.0 |
| 20260906071833 | 21 | 355 | 0.0 | 0.0 | 0.00 | 0.00 | 0.00 | 46 | 1021.0 |
| 20260906071310 | 21 | 355 | 0.0 | 0.0 | 0.00 | 0.00 | 0.00 | 46 | 1021.1 |
| 20260906070814 | 21 | 355 | 0.0 | 0.0 | 0.00 | 0.00 | 0.00 | 46 | 1021.0 |
| 20260906070318 | 21 | 355 | 0.0 | 0.0 | 0.00 | 0.00 | 0.00 | 46 | 1020.9 |
| 20260906065818 | 21 | 355 | 0.0 | 0.0 | 0.00 | 0.00 | 0.00 | 47 | 1021.0 |
| 20260906065337 | 21 | 355 | 0.0 | 0.0 | 0.00 | 0.00 | 0.00 | 47 | 1021.1 |
| 20260906064845 | 21 | 355 | 0.0 | 0.0 | 0.00 | 0.00 | 0.00 | 45 | 1021.1 |
| 20260906064332 | 22 | 355 | 0.0 | 0.0 | 0.00 | 0.00 | 0.00 | 45 | 1021.1 |
| 20260906063810 | 22 | 355 | 0.0 | 0.0 | 0.00 | 0.00 | 0.00 | 43 | 1021.1 |
| 20260906063310 | 22 | 355 | 0.0 | 0.0 | 0.00 | 0.00 | 0.00 | 42 | 1021.1 |
| 20260906062832 | 22 | 355 | 0.0 | 0.0 | 0.00 | 0.00 | 0.00 | 41 | 1021.0 |
| 20260906062338 | 22 | 355 | 0.0 | 0.0 | 0.00 | 0.00 | 0.00 | 40 | 1021.1 |
| 20260906061822 | 22 | 355 | 0.0 | 0.0 | 0.00 | 0.00 | 0.00 | 40 | 1020.9 |
| 20260906061304 | 23 | 355 | 0.0 | 0.0 | 0.00 | 0.00 | 0.00 | 40 | 1021.0 |
| 20260906060821 | 23 | 355 | 0.0 | 0.0 | 0.00 | 0.00 | 0.00 | 39 | 1020.9 |
| 20260906060304 | 22 | 355 | 0.0 | 0.0 | 0.00 | 0.00 | 0.00 | 39 | 1020.9 |
| 20260906055832 | 22 | 355 | 0.0 | 0.0 | 0.00 | 0.00 | 0.00 | 40 | 1020.7 |
| 20260906055327 | 22 | 355 | 0.0 | 0.0 | 0.00 | 0.00 | 0.00 | 40 | 1020.7 |
| 20260906054840 | 22 | 355 | 0.0 | 0.0 | 0.00 | 0.00 | 0.00 | 40 | 1020.6 |
| 20260906054345 | 22 | 355 | 0.0 | 0.0 | 0.00 | 0.00 | 0.00 | 39 | 1020.6 |
| 20260906053810 | 22 | 355 | 0.0 | 0.0 | 0.00 | 0.00 | 0.00 | 39 | 1020.6 |
| 20260906053318 | 23 | 355 | 0.0 | 0.0 | 0.00 | 0.00 | 0.00 | 39 | 1020.5 |
| 20260906052820 | 23 | 355 | 0.0 | 0.0 | 0.00 | 0.00 | 0.00 | 38 | 1020.5 |
| 20260906052336 | 23 | 355 | 0.0 | 0.0 | 0.00 | 0.00 | 0.00 | 37 | 1020.5 |
| 20260906051834 | 23 | 355 | 0.0 | 0.0 | 0.00 | 0.00 | 0.00 | 36 | 1020.5 |
| 20260906051333 | 24 | 355 | 0.0 | 0.0 | 0.00 | 0.00 | 0.00 | 35 | 1020.5 |
| 20260906050845 | 24 | 355 | 0.0 | 0.0 | 0.00 | 0.00 | 0.00 | 34 | 1020.5 |
| 20260906050306 | 25 | 355 | 0.0 | 0.0 | 0.00 | 0.00 | 0.00 | 33 | 1020.3 |
| 20260906045827 | 25 | 355 | 0.0 | 0.0 | 0.00 | 0.00 | 0.00 | 33 | 1020.4 |
| 20260906045323 | 25 | 355 | 0.0 | 0.0 | 0.00 | 0.00 | 0.00 | 33 | 1020.3 |
| 20260906044804 | 25 | 355 | 0.0 | 0.0 | 0.00 | 0.00 | 0.00 | 33 | 1020.3 |
| 20260906044318 | 25 | 355 | 0.0 | 0.0 | 0.00 | 0.00 | 0.00 | 33 | 1020.3 |
| 20260906043842 | 25 | 355 | 0.0 | 0.0 | 0.00 | 0.00 | 0.00 | 33 | 1020.3 |
| 20260906043346 | 25 | 355 | 0.0 | 1.6 | 0.00 | 0.00 | 0.00 | 33 | 1020.3 |
| 20260906042831 | 25 | 355 | 0.0 | 1.6 | 0.00 | 0.00 | 0.00 | 33 | 1020.3 |
| 20260906042336 | 25 | 8 | 0.0 | 0.0 | 0.00 | 0.00 | 0.00 | 33 | 1020.3 |
| 20260906041804 | 25 | 12 | 0.0 | 0.0 | 0.00 | 0.00 | 0.00 | 33 | 1020.3 |
| 20260906041334 | 25 | 16 | 0.0 | 0.0 | 0.00 | 0.00 | 0.00 | 33 | 1020.3 |
| 20260906040803 | 25 | 17 | 0.0 | 0.0 | 0.00 | 0.00 | 0.00 | 32 | 1020.3 |
| 20260906040339 | 25 | 17 | 0.0 | 0.0 | 0.00 | 0.00 | 0.00 | 33 | 1020.4 |
| 20260906035821 | 25 | 19 | 0.0 | 0.0 | 0.00 | 0.00 | 0.00 | 33 | 1020.4 |
| 20260906035315 | 25 | 19 | 0.0 | 0.0 | 0.00 | 0.00 | 0.00 | 33 | 1020.4 |
| 20260906034840 | 25 | 19 | 0.0 | 0.0 | 0.00 | 0.00 | 0.00 | 33 | 1020.4 |
| 20260906034306 | 25 | 19 | 0.0 | 0.0 | 0.00 | 0.00 | 0.00 | 33 | 1020.3 |
| 20260906033836 | 25 | 19 | 0.0 | 1.6 | 0.00 | 0.00 | 0.00 | 33 | 1020.3 |
| 20260906033331 | 25 | 17 | 0.0 | 3.2 | 0.00 | 0.00 | 0.00 | 33 | 1020.3 |
| 20260906032804 | 25 | 327 | 0.0 | 0.0 | 0.00 | 0.00 | 0.00 | 34 | 1020.4 |
| 20260906032329 | 25 | 327 | 0.0 | 0.0 | 0.00 | 0.00 | 0.00 | 34 | 1020.2 |
| 20260906031803 | 26 | 327 | 0.0 | 0.0 | 0.00 | 0.00 | 0.00 | 34 | 1020.0 |
| 20260906031329 | 26 | 326 | 0.0 | 0.0 | 0.00 | 0.00 | 0.00 | 34 | 1020.0 |
| 20260906030827 | 26 | 326 | 0.0 | 0.0 | 0.00 | 0.00 | 0.00 | 34 | 1019.9 |
| 20260906030314 | 26 | 326 | 0.0 | 0.0 | 0.00 | 0.00 | 0.00 | 34 | 1019.8 |
| 20260906025815 | 26 | 324 | 0.0 | 0.0 | 0.00 | 0.00 | 0.00 | 35 | 1019.8 |
| 20260906025306 | 26 | 320 | 0.0 | 0.0 | 0.00 | 0.00 | 0.00 | 35 | 1019.8 |
| 20260906024819 | 26 | 319 | 0.0 | 0.0 | 0.00 | 0.00 | 0.00 | 35 | 1019.6 |
| 20260906024320 | 26 | 319 | 0.0 | 1.6 | 0.00 | 0.00 | 0.00 | 35 | 1019.6 |
| 20260906023846 | 26 | 312 | 0.0 | 1.6 | 0.00 | 0.00 | 0.00 | 36 | 1019.5 |
| 20260906023331 | 26 | 288 | 0.0 | 0.0 | 0.00 | 0.00 | 0.00 | 35 | 1019.5 |
| 20260906022819 | 26 | 285 | 0.0 | 0.0 | 0.00 | 0.00 | 0.00 | 35 | 1019.4 |
| 20260906022306 | 26 | 284 | 0.0 | 0.0 | 0.00 | 0.00 | 0.00 | 36 | 1019.4 |
| 20260906021835 | 26 | 284 | 0.0 | 0.0 | 0.00 | 0.00 | 0.00 | 37 | 1019.2 |
| 20260906021331 | 26 | 284 | 0.0 | 0.0 | 0.00 | 0.00 | 0.00 | 36 | 1019.2 |
| 20260906020842 | 26 | 284 | 0.0 | 0.0 | 0.00 | 0.00 | 0.00 | 35 | 1019.2 |
| 20260906020315 | 27 | 284 | 0.0 | 0.0 | 0.00 | 0.00 | 0.00 | 34 | 1019.2 |
| 20260906015824 | 27 | 284 | 0.0 | 0.0 | 0.00 | 0.00 | 0.00 | 33 | 1019.2 |
| 20260906015322 | 27 | 284 | 0.0 | 0.0 | 0.00 | 0.00 | 0.00 | 32 | 1019.1 |
| 20260906014838 | 27 | 284 | 0.0 | 0.0 | 0.00 | 0.00 | 0.00 | 32 | 1019.2 |
| 20260906014343 | 28 | 284 | 0.0 | 0.0 | 0.00 | 0.00 | 0.00 | 31 | 1019.1 |
| 20260906013806 | 28 | 284 | 0.0 | 0.0 | 0.00 | 0.00 | 0.00 | 31 | 1019.1 |
| 20260906013311 | 28 | 284 | 0.0 | 0.0 | 0.00 | 0.00 | 0.00 | 30 | 1019.1 |
| 20260906012803 | 29 | 314 | 0.0 | 0.0 | 0.00 | 0.00 | 0.00 | 29 | 1019.1 |
| 20260906012326 | 29 | 314 | 0.0 | 0.0 | 0.00 | 0.00 | 0.00 | 29 | 1019.1 |
| 20260906011833 | 29 | 314 | 0.0 | 0.0 | 0.00 | 0.00 | 0.00 | 29 | 1019.1 |
| 20260906011310 | 29 | 286 | 0.0 | 3.2 | 0.00 | 0.00 | 0.00 | 29 | 1019.1 |
| 20260906010817 | 29 | 224 | 0.0 | 4.8 | 0.00 | 0.00 | 0.00 | 29 | 1019.2 |
| 20260906010311 | 30 | 234 | 0.0 | 4.8 | 0.00 | 0.00 | 0.00 | 28 | 1019.2 |
| 20260906005840 | 30 | 235 | 0.0 | 4.8 | 0.00 | 0.00 | 0.00 | 28 | 1019.2 |
| 20260906005329 | 30 | 252 | 1.6 | 6.4 | 0.00 | 0.00 | 0.00 | 27 | 1019.2 |
| 20260906004839 | 30 | 254 | 1.6 | 11.3 | 0.00 | 0.00 | 0.00 | 27 | 1019.2 |
| 20260906004303 | 30 | 236 | 3.2 | 11.3 | 0.00 | 0.00 | 0.00 | 27 | 1019.2 |
| 20260906003821 | 30 | 248 | 0.0 | 9.7 | 0.00 | 0.00 | 0.00 | 27 | 1019.2 |
| 20260906003305 | 31 | 251 | 1.6 | 6.4 | 0.00 | 0.00 | 0.00 | 26 | 1019.3 |
| 20260906002831 | 30 | 242 | 1.6 | 4.8 | 0.00 | 0.00 | 0.00 | 26 | 1019.2 |
| 20260906002319 | 31 | 311 | 0.0 | 3.2 | 0.00 | 0.00 | 0.00 | 26 | 1019.2 |
| 20260906001804 | 31 | 274 | 0.0 | 11.3 | 0.00 | 0.00 | 0.00 | 26 | 1019.3 |
| 20260906001335 | 31 | 256 | 0.0 | 11.3 | 0.00 | 0.00 | 0.00 | 25 | 1019.4 |
| 20260906000812 | 31 | 340 | 0.0 | 9.7 | 0.00 | 0.00 | 0.00 | 25 | 1019.3 |
| 20260906000307 | 31 | 245 | 3.2 | 9.7 | 0.00 | 0.00 | 0.00 | 25 | 1019.2 |
| 20260905235842 | 31 | 244 | 3.2 | 9.7 | 0.00 | 0.00 | 0.00 | 25 | 1018.9 |
| 20260905235307 | 31 | 263 | 4.8 | 14.5 | 0.00 | 0.00 | 0.00 | 25 | 1018.8 |
| 20260905234806 | 31 | 257 | 4.8 | 14.5 | 0.00 | 0.00 | 0.00 | 26 | 1018.9 |